Location: Biltmore Gardens
(41.6070°N, 83.4666°W)
Time: 15:15:43
(UTC+00:00)

Cosmos 614 Rocket - Pass Details

Date: 14 July 2020
Orbit: 732 x 764 km, 74.1° (Epoch: 12 August)

Event Time Altitude Azimuth Distance (km) Brightness Sun altitude
Exits shadow 07:22:42 45° 256° (WSW) 1,008 4.3 -22.5°
Maximum altitude 07:23:42 52° 293° (WNW) 921 4.3 -22.4°
Drops below altitude 10° 07:28:42 10° 10° (N) 2,265 7.5 -22.0°
Sets 07:31:08 0° 16° (NNE) 3,198 8.6 -21.7°
